SSEC Globe Logo

Space Science and Engineering Center

Surface Aviation Observations

KAIG 150815Z AUTO 00000KT 10SM OVC070 03/01 A2996 RMK AO2
     T00300012=
KAIG 150815Z AUTO 00000KT 10SM OVC070 03/01 A2996 RMK AO2
     T00300012=
KC29 150815Z AUTO 11003KT 10SM CLR 05/02 A2994 RMK AO1
     T00460016=
KC29 150815Z AUTO 11003KT 10SM CLR 05/02 A2994 RMK AO1
     T00460016=
KC29 150755Z AUTO 00000KT 10SM CLR 02/00 A2996 RMK AO1
     T00160001=
KC29 150755Z AUTO 00000KT 10SM CLR 02/00 A2996 RMK AO1
     T00160001=
KBCK 150815Z AUTO 09004KT 10SM -RA OVC070 04/03 A2989 RMK
     AO2 LTG DSNT NW T00400025=
KBCK 150815Z AUTO 09004KT 10SM -RA OVC070 04/03 A2989 RMK
     AO2 LTG DSNT NW T00400025=
KBCK 150755Z AUTO 08003KT 10SM OVC070 03/03 A2990 RMK AO2
     T00270025=
KBCK 150755Z AUTO 08003KT 10SM OVC070 03/03 A2990 RMK AO2
     T00270025=
KUBE 150815Z AUTO 08006KT 10SM BKN085 BKN100 03/00 A2985 RMK
     AO2 LTG DSNT SW=
KUBE 150815Z AUTO 08006KT 10SM BKN085 BKN100 03/00 A2985 RMK
     AO2 LTG DSNT SW=
KPVB 150815Z AUTO 10010KT 10SM CLR 05/04 A2990 RMK AO1
     T00500035=
KPVB 150815Z AUTO 10010KT 10SM CLR 05/04 A2990 RMK AO1
     T00500035=
KEZS 150815Z AUTO 00000KT 10SM BKN075 OVC100 05/02 A2998 RMK
     AO2 T00450020=
KEZS 150815Z AUTO 00000KT 10SM BKN075 OVC100 05/02 A2998 RMK
     AO2 T00450020=
KARV 150755Z AUTO 00000KT 10SM OVC070 01/00 A2993 RMK AO2
     T00110000=
KARV 150755Z AUTO 00000KT 10SM OVC070 01/00 A2993 RMK AO2
     T00110000=
KASX 150753Z AUTO 00000KT 10SM CLR M01/M02 A2993 RMK AO2
     SLP145 T10111017=
KASX 150753Z AUTO 00000KT 10SM CLR M01/M02 A2993 RMK AO2
     SLP145 T10111017=
KATW 150815Z AUTO 00000KT 10SM CLR 02/M02 A2996 RMK AO2=
KATW 150815Z AUTO 00000KT 10SM CLR 02/M02 A2996 RMK AO2=
KAUW 150754Z AUTO 09005KT 10SM OVC100 03/01 A2994 RMK AO2
     SLP150 T00330011=
KAUW 150754Z AUTO 09005KT 10SM OVC100 03/01 A2994 RMK AO2
     SLP150 T00330011=
KBUU 150815Z AUTO 00000KT 10SM CLR M01/M01 A2999 RMK AO2
     T10071007=
KBUU 150815Z AUTO 00000KT 10SM CLR M01/M01 A2999 RMK AO2
     T10071007=
KBUU 150755Z AUTO 00000KT 10SM CLR 00/00 A3001 RMK AO2
     T00000000=
KBUU 150755Z AUTO 00000KT 10SM CLR 00/00 A3001 RMK AO2
     T00000000=
KCLI 150815Z AUTO 00000KT 10SM SCT070 OVC090 03/01 A2998 RMK
     AO2 T00260011=
KCLI 150815Z AUTO 00000KT 10SM SCT070 OVC090 03/01 A2998 RMK
     AO2 T00260011=
KCLI 150755Z AUTO 00000KT 10SM BKN070 OVC100 03/01 A2998 RMK
     AO2 T00300013=
KCLI 150755Z AUTO 00000KT 10SM BKN070 OVC100 03/01 A2998 RMK
     AO2 T00300013=
KCMY 150815Z AUTO 00000KT 10SM SCT080 OVC100 01/01 A2988 RMK
     AO2 LTG DSNT NW T00120007=
KCMY 150815Z AUTO 00000KT 10SM SCT080 OVC100 01/01 A2988 RMK
     AO2 LTG DSNT NW T00120007=
KCMY 150755Z AUTO 00000KT 10SM BKN100 01/00 A2990 RMK AO2
     T00100002=
KCMY 150755Z AUTO 00000KT 10SM BKN100 01/00 A2990 RMK AO2
     T00100002=
KCWA 150815Z AUTO 09004KT 10SM BKN100 02/00 A2995 RMK AO2
     LTG DSNT SW=
KCWA 150815Z AUTO 09004KT 10SM BKN100 02/00 A2995 RMK AO2
     LTG DSNT SW=
KCWA 150755Z AUTO 10003KT 7SM OVC090 02/01 A2996 RMK AO2=
KCWA 150755Z AUTO 10003KT 7SM OVC090 02/01 A2996 RMK AO2=
KDLL 150815Z AUTO 00000KT 10SM SCT095 02/01 A2992 RMK AO2
     T00210007=
KDLL 150815Z AUTO 00000KT 10SM SCT095 02/01 A2992 RMK AO2
     T00210007=
KEAU 150756Z AUTO 10008KT 10SM OVC060 07/01 A2987 RMK AO2
     SLP119 T00720011=
KEAU 150756Z AUTO 10008KT 10SM OVC060 07/01 A2987 RMK AO2
     SLP119 T00720011=
KEFT 150815Z AUTO 14007KT 10SM CLR 05/02 A2995 RMK AO2
     T00500016=
KEFT 150815Z AUTO 14007KT 10SM CLR 05/02 A2995 RMK AO2
     T00500016=
KEFT 150755Z AUTO 14007KT 10SM CLR 05/02 A2995 RMK AO2
     T00510016=
KEFT 150755Z AUTO 14007KT 10SM CLR 05/02 A2995 RMK AO2
     T00510016=
KEGV 150815Z AUTO 00000KT 10SM BKN080 OVC090 M01/M01 A2994
     RMK AO2 T10141014=
KEGV 150815Z AUTO 00000KT 10SM BKN080 OVC090 M01/M01 A2994
     RMK AO2 T10141014=
KEGV 150755Z AUTO 00000KT 4SM BR SCT080 SCT090 M02/M02 A2995
     RMK AO2 T10161016=
KEGV 150755Z AUTO 00000KT 4SM BR SCT080 SCT090 M02/M02 A2995
     RMK AO2 T10161016=
KETB 150755Z AUTO 00000KT 10SM CLR 00/00 A3000 RMK AO2=
KETB 150755Z AUTO 00000KT 10SM CLR 00/00 A3000 RMK AO2=
KFLD 150753Z AUTO 00000KT 10SM CLR 03/01 A2999 RMK AO2
     SLP162 T00280006=
KFLD 150753Z AUTO 00000KT 10SM CLR 03/01 A2999 RMK AO2
     SLP162 T00280006=
KGRB 150753Z AUTO 00000KT 10SM CLR 04/01 A3000 RMK AO2
     SLP165 T00390006=
KGRB 150753Z AUTO 00000KT 10SM CLR 04/01 A3000 RMK AO2
     SLP165 T00390006=
KHYR 150753Z AUTO 00000KT 10SM OVC070 02/00 A2991 RMK AO2
     SLP138 T00170000 $=
KHYR 150753Z AUTO 00000KT 10SM OVC070 02/00 A2991 RMK AO2
     SLP138 T00170000 $=
KISW 150754Z AUTO 00000KT 10SM CLR 03/00 A2995 RMK AO2
     SLP149 T00330000=
KISW 150754Z AUTO 00000KT 10SM CLR 03/00 A2995 RMK AO2
     SLP149 T00330000=
KJVL 150815Z AUTO 00000KT 10SM CLR 04/02 A2997 RMK AO2=
KJVL 150815Z AUTO 00000KT 10SM CLR 04/02 A2997 RMK AO2=
KLNL 150815Z AUTO 00000KT 10SM CLR M01/M02 A2996 RMK AO2
     T10151016=
KLNL 150815Z AUTO 00000KT 10SM CLR M01/M02 A2996 RMK AO2
     T10151016=
KLNR 150756Z AUTO 10006KT 10SM SCT095 05/02 A2993 RMK AO2
     SLP134 T00500022=
KLNR 150756Z AUTO 10006KT 10SM SCT095 05/02 A2993 RMK AO2
     SLP134 T00500022=
KLSE 150753Z AUTO 12005KT 10SM BKN075 OVC110 07/02 A2987 RMK
     AO2 SLP119 T00670017=
KLSE 150753Z AUTO 12005KT 10SM BKN075 OVC110 07/02 A2987 RMK
     AO2 SLP119 T00670017=
KLUM 150815Z AUTO 09007KT 10SM OVC055 04/02 A2985 RMK AO2
     LTG DSNT SW AND W T00400015=
KLUM 150815Z AUTO 09007KT 10SM OVC055 04/02 A2985 RMK AO2
     LTG DSNT SW AND W T00400015=
KLUM 150755Z AUTO 09006KT 10SM -RA OVC060 04/02 A2986 RMK
     AO2 LTG DSNT W T00400015=
KLUM 150755Z AUTO 09006KT 10SM -RA OVC060 04/02 A2986 RMK
     AO2 LTG DSNT W T00400015=
KMDZ 150815Z AUTO 11003KT 10SM BKN070 OVC080 04/00 A2990 RMK
     AO2 LTG DSNT W T00390003=
KMDZ 150815Z AUTO 11003KT 10SM BKN070 OVC080 04/00 A2990 RMK
     AO2 LTG DSNT W T00390003=
KMFI 150754Z AUTO 12005KT 10SM BKN100 04/01 A2992 RMK AO2
     SLP139 T00390011=
KMFI 150754Z AUTO 12005KT 10SM BKN100 04/01 A2992 RMK AO2
     SLP139 T00390011=
KMKE 150752Z 00000KT 10SM BKN220 06/02 A3002 RMK AO2 SLP169
     T00560017 $=
KMKE 150752Z 00000KT 10SM BKN220 06/02 A3002 RMK AO2 SLP169
     T00560017 $=
KMRJ 150815Z AUTO 14007KT 10SM CLR 05/02 A2992 RMK AO2=
KMRJ 150815Z AUTO 14007KT 10SM CLR 05/02 A2992 RMK AO2=
KMRJ 150755Z AUTO 14007KT 10SM CLR 05/02 A2993 RMK AO2=
KMRJ 150755Z AUTO 14007KT 10SM CLR 05/02 A2993 RMK AO2=
KMSN 150753Z AUTO 17005KT 10SM CLR 05/01 A2996 RMK AO2
     SLP149 T00500011=
KMSN 150753Z AUTO 17005KT 10SM CLR 05/01 A2996 RMK AO2
     SLP149 T00500011=
KMTW 150756Z AUTO 00000KT 10SM CLR 01/01 A3002 RMK AO2
     SLP172 T00110006 FZRANO=
KMTW 150756Z AUTO 00000KT 10SM CLR 01/01 A3002 RMK AO2
     SLP172 T00110006 FZRANO=
KMWC 150815Z AUTO 00000KT 10SM CLR 01/00 A3001 RMK AO2=
KMWC 150815Z AUTO 00000KT 10SM CLR 01/00 A3001 RMK AO2=
KOEO 150815Z AUTO 25003KT 7SM UP OVC065 06/03 A2990 RMK AO2
     P0001 T00640031=
KOEO 150815Z AUTO 25003KT 7SM UP OVC065 06/03 A2990 RMK AO2
     P0001 T00640031=
KOEO 150755Z AUTO 10003KT 10SM OVC065 07/02 A2987 RMK AO2
     T00670022=
KOEO 150755Z AUTO 10003KT 10SM OVC065 07/02 A2987 RMK AO2
     T00670022=
KOSH 150753Z AUTO 15003KT 10SM CLR 03/00 A2999 RMK AO2
     SLP160 T00280000 $=
KOSH 150753Z AUTO 15003KT 10SM CLR 03/00 A2999 RMK AO2
     SLP160 T00280000 $=
KOVS 150753Z AUTO 00000KT 9SM CLR 03/02 A2992 RMK AO2
     SNB27E49 SLP135 P0000 T00280017=
KOVS 150753Z AUTO 00000KT 9SM CLR 03/02 A2992 RMK AO2
     SNB27E49 SLP135 P0000 T00280017=
KPBH 150815Z AUTO 08003KT 10SM OVC060 03/01 A2991 RMK AO2
     T00250007=
KPBH 150815Z AUTO 08003KT 10SM OVC060 03/01 A2991 RMK AO2
     T00250007=
KPBH 150755Z AUTO 00000KT 10SM OVC070 03/01 A2992 RMK AO2
     T00250008=
KPBH 150755Z AUTO 00000KT 10SM OVC070 03/01 A2992 RMK AO2
     T00250008=
KPCZ 150815Z AUTO 00000KT 10SM CLR 02/01 A2998 RMK AO2
     T00150007=
KPCZ 150815Z AUTO 00000KT 10SM CLR 02/01 A2998 RMK AO2
     T00150007=
KPDC 150815Z AUTO 10004KT 10SM OVC090 07/02 A2987 RMK AO2
     T00740023=
KPDC 150815Z AUTO 10004KT 10SM OVC090 07/02 A2987 RMK AO2
     T00740023=
KPDC 150755Z AUTO 10005KT 10SM BKN100 BKN120 07/02 A2989 RMK
     AO2 T00670020=
KPDC 150755Z AUTO 10005KT 10SM BKN100 BKN120 07/02 A2989 RMK
     AO2 T00670020=
KRAC 150753Z AUTO 00000KT 10SM CLR 04/01 A3004 RMK AO2
     SLP175 T00440011=
KRAC 150753Z AUTO 00000KT 10SM CLR 04/01 A3004 RMK AO2
     SLP175 T00440011=
KRCX 150815Z AUTO 10006KT 10SM OVC100 05/01 A2991 RMK AO2
     T00460013=
KRCX 150815Z AUTO 10006KT 10SM OVC100 05/01 A2991 RMK AO2
     T00460013=
KRCX 150755Z AUTO 09005KT 10SM SCT070 OVC100 05/01 A2992 RMK
     AO2 T00460013=
KRCX 150755Z AUTO 09005KT 10SM SCT070 OVC100 05/01 A2992 RMK
     AO2 T00460013=
KRHI 150753Z AUTO 00000KT 10SM OVC070 01/00 A2995 RMK AO2
     SLP156 T00110000=
KRHI 150753Z AUTO 00000KT 10SM OVC070 01/00 A2995 RMK AO2
     SLP156 T00110000=
KRNH 150815Z AUTO 07004KT 5SM +RA SCT023 SCT029 OVC050 06/01
     A2985 RMK AO2 P0003 T00600012=
KRNH 150815Z AUTO 07004KT 5SM +RA SCT023 SCT029 OVC050 06/01
     A2985 RMK AO2 P0003 T00600012=
KRNH 150755Z AUTO 10008KT 10SM BKN050 OVC065 06/01 A2982 RMK
     AO2 T00570010=
KRNH 150755Z AUTO 10008KT 10SM BKN050 OVC065 06/01 A2982 RMK
     AO2 T00570010=
KRPD 150815Z AUTO 08004KT 10SM SCT070 BKN080 OVC100 06/M04
     A2987 RMK AO2 LTG DSNT SW T00551040=
KRPD 150815Z AUTO 08004KT 10SM SCT070 BKN080 OVC100 06/M04
     A2987 RMK AO2 LTG DSNT SW T00551040=
KRRL 150815Z AUTO 00000KT 10SM BKN070 OVC100 02/01 A2995 RMK
     AO2 T00150010 TSNO=
KRRL 150815Z AUTO 00000KT 10SM BKN070 OVC100 02/01 A2995 RMK
     AO2 T00150010 TSNO=
KRYV 150815Z AUTO 00000KT 10SM CLR 03/02 A2996 RMK AO2
     T00320018=
KRYV 150815Z AUTO 00000KT 10SM CLR 03/02 A2996 RMK AO2
     T00320018=
KRZN 150815Z AUTO 00000KT 10SM OVC090 04/01 A2986 RMK AO2
     T00380006=
KRZN 150815Z AUTO 00000KT 10SM OVC090 04/01 A2986 RMK AO2
     T00380006=
KRZN 150755Z AUTO 07003KT 10SM SCT070 BKN075 OVC090 04/01
     A2986 RMK AO2 T00370005=
KRZN 150755Z AUTO 07003KT 10SM SCT070 BKN075 OVC090 04/01
     A2986 RMK AO2 T00370005=
KSBM 150753Z AUTO 00000KT 10SM CLR 01/M01 A3001 RMK AO2
     SLP169 T00061006=
KSBM 150753Z AUTO 00000KT 10SM CLR 01/M01 A3001 RMK AO2
     SLP169 T00061006=
KSTE 150815Z AUTO 00000KT 10SM SCT095 01/01 A2996 RMK AO2
     T00080007=
KSTE 150815Z AUTO 00000KT 10SM SCT095 01/01 A2996 RMK AO2
     T00080007=
KSUE 150756Z AUTO 19005KT 10SM BKN085 05/00 A3002 RMK AO2
     SLP168 T00500000=
KSUE 150756Z AUTO 19005KT 10SM BKN085 05/00 A3002 RMK AO2
     SLP168 T00500000=
KSUW 150835Z AUTO 00000KT 10SM CLR M01/M01 A2991 RMK AO2
     T10061007=
KSUW 150835Z AUTO 00000KT 10SM CLR M01/M01 A2991 RMK AO2
     T10061007=
KSUW 150815Z AUTO 00000KT 10SM CLR M01/M01 A2991 RMK AO2
     T10081009=
KSUW 150815Z AUTO 00000KT 10SM CLR M01/M01 A2991 RMK AO2
     T10081009=
KTKV 150815Z AUTO 00000KT 10SM SCT065 OVC110 02/01 A2994 RMK
     AO2 T00150005=
KTKV 150815Z AUTO 00000KT 10SM SCT065 OVC110 02/01 A2994 RMK
     AO2 T00150005=
KTKV 150755Z AUTO 00000KT 10SM OVC075 02/01 A2994 RMK AO2
     T00150007=
KTKV 150755Z AUTO 00000KT 10SM OVC075 02/01 A2994 RMK AO2
     T00150007=
KUES 150815Z AUTO 14003KT 10SM CLR 01/00 A2999 RMK AO2=
KUES 150815Z AUTO 14003KT 10SM CLR 01/00 A2999 RMK AO2=
KUES 150755Z AUTO 00000KT 10SM CLR 01/00 A3001 RMK AO2=
KUES 150755Z AUTO 00000KT 10SM CLR 01/00 A3001 RMK AO2=
KUNU 150815Z AUTO 11005KT 10SM CLR 03/02 A2997 RMK AO2
     T00280015=
KUNU 150815Z AUTO 11005KT 10SM CLR 03/02 A2997 RMK AO2
     T00280015=
KUNU 150755Z AUTO 11005KT 10SM CLR 02/01 A2998 RMK AO2
     T00220011=
KUNU 150755Z AUTO 11005KT 10SM CLR 02/01 A2998 RMK AO2
     T00220011=
KVOK 150756Z AUTO 11004KT 10SM CLR 01/01 A2992 RMK AO2
     SLP141 T00120012=
KVOK 150756Z AUTO 11004KT 10SM CLR 01/01 A2992 RMK AO2
     SLP141 T00120012=
KVOK 150756Z AUTO 11004KT 10SM CLR 01/01 A2992 RMK AO2
     SLP141 T00120012=
METAR KVOK 150756Z AUTO 11004KT 10SM CLR 01/01 A2992 RMK AO2
     SLP141 T00120012=
METAR KVOK 150756Z AUTO 11004KT 10SM CLR 01/01 A2992 RMK AO2
     SLP141 T00120012=
KY50 150756Z AUTO 00000KT 10SM CLR M01/M01 A2997 RMK AO2
     SLP154 T10061011 FZRANO $=
KY50 150756Z AUTO 00000KT 10SM CLR M01/M01 A2997 RMK AO2
     SLP154 T10061011 FZRANO $=
KY51 150815Z AUTO 14007KT 10SM BKN100 06/03 A2987 RMK AO1
     T00550027=
KY51 150815Z AUTO 14007KT 10SM BKN100 06/03 A2987 RMK AO1
     T00550027=
KY23 150815Z AUTO 10SM OVC065 05/02 A2986 RMK AO2 T00510022=
KY23 150815Z AUTO 10SM OVC065 05/02 A2986 RMK AO2 T00510022=
K3D2 150815Z AUTO 00000KT 10SM BKN090 03/00 A3000 RMK AO2
     T00271001=
K3D2 150815Z AUTO 00000KT 10SM BKN090 03/00 A3000 RMK AO2
     T00271001=
KD25 150815Z AUTO 00000KT 3SM BR SCT075 BKN085 M02/M02 A2993
     RMK AO2 T10201020=
KD25 150815Z AUTO 00000KT 3SM BR SCT075 BKN085 M02/M02 A2993
     RMK AO2 T10201020=
K82C 150815Z AUTO 00000KT 7SM SCT065 OVC090 03/02 A2991 RMK
     AO2 T00250020=
K82C 150815Z AUTO 00000KT 7SM SCT065 OVC090 03/02 A2991 RMK
     AO2 T00250020=
KOCQ 150815Z AUTO 00000KT 10SM SCT080 OVC095 03/01 A3000 RMK
     AO1 T00300009=
KOCQ 150815Z AUTO 00000KT 10SM SCT080 OVC095 03/01 A3000 RMK
     AO1 T00300009=
KOCQ 150755Z AUTO 00000KT 10SM OVC095 02/01 A3001 RMK AO1
     T00170011=
KOCQ 150755Z AUTO 00000KT 10SM OVC095 02/01 A3001 RMK AO1
     T00170011=
KC35 150815Z AUTO 07003KT 10SM SCT090 03/02 A2991 RMK AO2
     T00270023 PWINO=
KC35 150815Z AUTO 07003KT 10SM SCT090 03/02 A2991 RMK AO2
     T00270023 PWINO=
KOLG 150815Z AUTO 02003KT 10SM CLR M01/M01 A2989 RMK AO1=
KOLG 150815Z AUTO 02003KT 10SM CLR M01/M01 A2989 RMK AO1=
KOLG 150755Z AUTO 01003KT 10SM CLR M01/M01 A2989 RMK AO1=
KOLG 150755Z AUTO 01003KT 10SM CLR M01/M01 A2989 RMK AO1=
K2P2 150815Z AUTO 00000KT 10SM OVC110 03/00 A3000 RMK AO2
     T00340004=
K2P2 150815Z AUTO 00000KT 10SM OVC110 03/00 A3000 RMK AO2
     T00340004=
K2P2 150755Z AUTO 00000KT 10SM OVC110 04/01 A3000 RMK AO2
     T00390006=
K2P2 150755Z AUTO 00000KT 10SM OVC110 04/01 A3000 RMK AO2
     T00390006=
KDBQ 150753Z AUTO 13011KT 10SM CLR 07/02 A2991 RMK AO2
     SLP132 T00670017=
KDBQ 150753Z AUTO 13011KT 10SM CLR 07/02 A2991 RMK AO2
     SLP132 T00670017=
KRST 150754Z AUTO 16011KT 10SM BKN070 BKN085 BKN110 08/02
     A2980 RMK AO2 SLP096 T00830022=
KRST 150754Z AUTO 16011KT 10SM BKN070 BKN085 BKN110 08/02
     A2980 RMK AO2 SLP096 T00830022=
KMSP 150816Z 08005KT 10SM VCTS FEW026 OVC060CB 07/04 A2981
     RMK AO2 LTG DSNT NE-S RAE0756 TSE10 VCTS N-SE MOV NE
     P0000 T00720044=
KMSP 150753Z 35007KT 4SM -TSRA OVC060CB 07/04 A2982 RMK AO2
     LTG DSNT N-E RAB00E24B34 TSB35 SLP103 TS OHD MOV NE
     P0008 T00720039=
KMSP 150753Z 35007KT 4SM -TSRA OVC060CB 07/04 A2982 RMK AO2
     LTG DSNT N-E RAB00E24B34 TSB35 SLP103 TS OHD MOV NE
     P0008 T00720039=
KRFD 150754Z 10005KT 10SM SCT250 07/02 A3001 RMK T00670020=
KRFD 150754Z 10005KT 10SM SCT250 07/02 A3001 RMK T00670020=
KORD 150751Z 00000KT 10SM SCT180 SCT250 05/01 A3002 RMK AO2
     SLP169 T00500011=
KORD 150751Z 00000KT 10SM SCT180 SCT250 05/01 A3002 RMK AO2
     SLP169 T00500011=